Weather in Jinghong

China     21°51′11″N   100°55′52″E
temp.,
°C
wind,
m/s
gust,
m/s
humid.,
%
clouds,
%
prec.,
mm/h
press.,
hPa
HPBL,
m
17 january, mon
mon1723:00+14s0010093 2.4 101720
02:00+14w009855 3.2 101725
05:00+13ne009777 0.3 101615
08:00+14n019994 0.4 101841
11:00+15nnw0194100 0.1 1020303
14:00+18ne017493 0.1 1017673
17:00+20e11622 0.0 1014908
20:00+14e11910 0.0 101711
18 january, tue
tue1823:00+12e00983 0.0 101911
02:00+11ne119922 0.0 101912
05:00+11n009935 0.0 101814
08:00+10n0110042 0.0 102022
11:00+18n126656 0.0 1020593
14:00+23se124830 0.0 10161472
17:00+19ese237841 0.6 1013289
20:00+14ese11985 0.9 101630
19 january, wed
wed1923:00+13ese119913 0.0 101814
02:00+12ese009929 0.1 101813
05:00+11e1110037 0.1 101715
08:00+11ene1110041 0.4 101819
11:00+16ene018665 0.2 1019496
14:00+19wsw127375 0.6 1015737
17:00+21wsw136624 0.5 1011800
20:00+14se11971 1.9 101317
20 january, thu
thu2023:00+12sse009916 0.1 101412
02:00+12w11100100 1.8 101416
05:00+12ssw1110048 0.4 101326
08:00+12sse0110081 1.4 101443
11:00+14s0194100 0.2 1016349
14:00+16se118898 1.1 1013518
17:00+17ene118529 0.9 1011450
20:00+13s019920 2.9 101115
21 january, fri
fri2123:00+12e119916 0.4 101313
02:00+12s1110099 0.9 101359
05:00+11se0010049 0.2 101217
08:00+12ese00100100 0.9 101466
11:00+13ese0197100 0.4 1015222
14:00+16ne0185100 0.8 1012612
17:00+17nnw018319 0.4 1009424
20:00+13se11985 3.1 101013